TimeCST,TemperatureF,Dew PointF,Humidity,Sea Level PressureIn,VisibilityMPH,Wind Direction,Wind SpeedMPH,Gust SpeedMPH,PrecipitationIn,Events,Conditions,WindDirDegrees,DateUTC
12:10 AM,17.6,8.6,68,30.37,10.0,Calm,Calm,-,N/A,,Partly Cloudy,0,2013-01-14 06:10:00
12:30 AM,15.8,8.6,73,30.37,10.0,Calm,Calm,-,N/A,,Partly Cloudy,0,2013-01-14 06:30:00
12:50 AM,15.8,8.6,73,30.37,10.0,ENE,3.5,-,N/A,,Scattered Clouds,70,2013-01-14 06:50:00
1:10 AM,17.6,8.6,68,30.37,10.0,NE,3.5,-,N/A,,Scattered Clouds,50,2013-01-14 07:10:00
1:30 AM,17.6,8.6,68,30.37,10.0,NE,3.5,-,N/A,,Partly Cloudy,40,2013-01-14 07:30:00
1:50 AM,15.8,8.6,73,30.37,10.0,NNE,4.6,-,N/A,,Partly Cloudy,30,2013-01-14 07:50:00
2:30 AM,17.6,8.6,68,30.38,10.0,North,4.6,-,N/A,,Partly Cloudy,10,2013-01-14 08:30:00
2:50 AM,15.8,8.6,73,30.39,10.0,North,5.8,-,N/A,,Partly Cloudy,10,2013-01-14 08:50:00
3:10 AM,15.8,10.4,79,30.39,10.0,NNE,4.6,-,N/A,,Partly Cloudy,30,2013-01-14 09:10:00
3:30 AM,15.8,10.4,79,30.39,10.0,North,4.6,-,N/A,,Partly Cloudy,10,2013-01-14 09:30:00
3:50 AM,15.8,10.4,79,30.39,10.0,North,4.6,-,N/A,,Partly Cloudy,10,2013-01-14 09:50:00
4:10 AM,15.8,10.4,79,30.38,10.0,North,8.1,-,N/A,,Scattered Clouds,10,2013-01-14 10:10:00
4:30 AM,15.8,10.4,79,30.38,10.0,North,5.8,-,N/A,,Mostly Cloudy,10,2013-01-14 10:30:00
4:50 AM,15.8,10.4,79,30.39,10.0,North,4.6,-,N/A,,Scattered Clouds,10,2013-01-14 10:50:00
5:30 AM,17.6,10.4,73,30.40,10.0,North,6.9,-,N/A,,Mostly Cloudy,360,2013-01-14 11:30:00
5:50 AM,17.6,10.4,73,30.40,10.0,NNE,4.6,-,N/A,,Mostly Cloudy,20,2013-01-14 11:50:00
6:10 AM,17.6,10.4,73,30.40,10.0,NNE,5.8,-,N/A,,Mostly Cloudy,20,2013-01-14 12:10:00
6:30 AM,17.6,10.4,73,30.40,10.0,NE,4.6,-,N/A,,Mostly Cloudy,40,2013-01-14 12:30:00
6:50 AM,17.6,10.4,73,30.42,10.0,NNE,4.6,-,N/A,,Mostly Cloudy,20,2013-01-14 12:50:00
7:10 AM,17.6,12.2,79,30.43,10.0,NNE,3.5,-,N/A,,Mostly Cloudy,20,2013-01-14 13:10:00
7:30 AM,17.6,10.4,73,30.44,10.0,Calm,Calm,-,N/A,,Mostly Cloudy,0,2013-01-14 13:30:00
7:50 AM,17.6,10.4,73,30.45,10.0,North,3.5,-,N/A,,Mostly Cloudy,360,2013-01-14 13:50:00
8:10 AM,17.6,12.2,79,30.45,10.0,NNE,4.6,-,N/A,,Clear,20,2013-01-14 14:10:00
8:50 AM,19.4,12.2,74,30.43,10.0,NNE,8.1,-,N/A,,Clear,20,2013-01-14 14:50:00
9:10 AM,19.4,14.0,80,30.43,10.0,NNE,8.1,-,N/A,,Clear,30,2013-01-14 15:10:00
9:30 AM,21.2,12.2,68,30.43,10.0,NE,6.9,-,N/A,,Clear,50,2013-01-14 15:30:00
9:50 AM,23.0,12.2,63,30.43,10.0,NE,8.1,-,N/A,,Clear,40,2013-01-14 15:50:00
10:10 AM,23.0,10.4,59,30.43,10.0,NE,9.2,-,N/A,,Clear,40,2013-01-14 16:10:00
10:30 AM,24.8,10.4,54,30.43,10.0,ENE,8.1,-,N/A,,Clear,60,2013-01-14 16:30:00
10:50 AM,24.8,10.4,54,30.41,10.0,NE,9.2,-,N/A,,Clear,50,2013-01-14 16:50:00
11:10 AM,26.6,10.4,51,30.41,10.0,NE,10.4,-,N/A,,Clear,50,2013-01-14 17:10:00
11:30 AM,26.6,8.6,47,30.41,10.0,NE,9.2,-,N/A,,Clear,40,2013-01-14 17:30:00
11:50 AM,28.4,8.6,43,30.40,10.0,NE,9.2,-,N/A,,Clear,40,2013-01-14 17:50:00
12:10 PM,28.4,8.6,43,30.37,10.0,NNE,9.2,-,N/A,,Clear,20,2013-01-14 18:10:00
12:30 PM,28.4,8.6,43,30.36,10.0,ENE,9.2,-,N/A,,Clear,70,2013-01-14 18:30:00
12:50 PM,30.2,8.6,40,30.35,10.0,ENE,10.4,-,N/A,,Clear,60,2013-01-14 18:50:00
1:10 PM,30.2,8.6,40,30.34,10.0,ENE,8.1,-,N/A,,Clear,70,2013-01-14 19:10:00
1:30 PM,30.2,8.6,40,30.33,10.0,NE,9.2,-,N/A,,Clear,50,2013-01-14 19:30:00
1:50 PM,32.0,6.8,35,30.33,10.0,ENE,10.4,-,N/A,,Partly Cloudy,60,2013-01-14 19:50:00
2:10 PM,32.0,6.8,35,30.32,10.0,ENE,11.5,-,N/A,,Partly Cloudy,70,2013-01-14 20:10:00
2:30 PM,32.0,6.8,35,30.31,10.0,ENE,11.5,-,N/A,,Clear,70,2013-01-14 20:30:00
2:50 PM,32.0,6.8,35,30.31,10.0,East,10.4,16.1,N/A,,Clear,80,2013-01-14 20:50:00
3:30 PM,32.0,6.8,35,30.30,10.0,ESE,11.5,-,N/A,,Partly Cloudy,110,2013-01-14 21:30:00
3:50 PM,32.0,6.8,35,30.31,10.0,East,11.5,-,N/A,,Clear,80,2013-01-14 21:50:00
4:15 PM,32.0,6.8,35,30.31,10.0,East,9.2,-,N/A,,Clear,80,2013-01-14 22:15:00
4:30 PM,32.0,5.0,32,30.31,10.0,East,10.4,-,N/A,,Clear,80,2013-01-14 22:30:00
4:50 PM,32.0,6.8,35,30.31,10.0,East,6.9,-,N/A,,Clear,80,2013-01-14 22:50:00
5:10 PM,30.2,6.8,37,30.32,10.0,East,8.1,-,N/A,,Clear,80,2013-01-14 23:10:00
5:30 PM,30.2,8.6,40,30.32,10.0,East,5.8,-,N/A,,Scattered Clouds,90,2013-01-14 23:30:00
5:50 PM,28.4,8.6,43,30.32,10.0,East,5.8,-,N/A,,Overcast,90,2013-01-14 23:50:00
6:10 PM,28.4,10.4,47,30.32,10.0,East,5.8,-,N/A,,Overcast,100,2013-01-15 00:10:00
6:30 PM,28.4,12.2,51,30.32,10.0,East,5.8,-,N/A,,Overcast,90,2013-01-15 00:30:00
6:50 PM,26.6,10.4,51,30.32,10.0,East,6.9,-,N/A,,Overcast,100,2013-01-15 00:50:00
7:10 PM,26.6,10.4,51,30.32,10.0,ENE,3.5,-,N/A,,Overcast,70,2013-01-15 01:10:00
7:30 PM,26.6,10.4,51,30.32,10.0,East,4.6,-,N/A,,Overcast,90,2013-01-15 01:30:00
7:50 PM,26.6,12.2,55,30.32,10.0,East,4.6,-,N/A,,Overcast,80,2013-01-15 01:50:00
8:10 PM,26.6,12.2,55,30.33,10.0,East,4.6,-,N/A,,Overcast,100,2013-01-15 02:10:00
8:30 PM,26.6,10.4,51,30.32,10.0,East,5.8,-,N/A,,Overcast,100,2013-01-15 02:30:00
8:50 PM,24.8,10.4,54,30.32,10.0,ESE,5.8,-,N/A,,Overcast,110,2013-01-15 02:50:00
9:10 PM,26.6,10.4,51,30.31,10.0,East,5.8,-,N/A,,Overcast,80,2013-01-15 03:10:00
9:30 PM,26.6,10.4,51,30.32,10.0,NE,3.5,-,N/A,,Overcast,50,2013-01-15 03:30:00
9:50 PM,24.8,10.4,54,30.33,10.0,NNE,4.6,-,N/A,,Overcast,20,2013-01-15 03:50:00
10:10 PM,24.8,14.0,64,30.32,10.0,NNE,5.8,-,N/A,,Overcast,30,2013-01-15 04:10:00
10:30 PM,26.6,14.0,59,30.33,10.0,NNE,4.6,-,N/A,,Overcast,20,2013-01-15 04:30:00
10:50 PM,24.8,14.0,64,30.33,10.0,NE,5.8,-,N/A,,Overcast,50,2013-01-15 04:50:00
11:10 PM,24.8,14.0,64,30.33,10.0,NNE,5.8,-,N/A,,Overcast,20,2013-01-15 05:10:00
11:30 PM,24.8,14.0,64,30.33,10.0,NE,5.8,-,N/A,,Overcast,40,2013-01-15 05:30:00
11:50 PM,23.0,14.0,68,30.33,10.0,NE,4.6,-,N/A,,Mostly Cloudy,40,2013-01-15 05:50:00